STARLINK-4146 (53294 NORAD) Tracking and Keplerian Element Data

This shows tracking and keplerian element data for the satellite.

Feedback or suggestion? Click here.




ElementValue
Catalog53294
NameSTARLINK-4146
Epoch Orbit130
Epoch Day269.91667824
Epoch Year2022
RAAN84.6977
Inclination53.2166
Eccentricity0.0002202
Argument of Perigee18.7766
Mean Anonmoly134.4701
Mean Motion15.73152534
Decay Rate0.00062174
L11 53294U 22086BE 22269.91667824 .00062174 00000+0 44501-3 0 9991
L22 53294 53.2166 84.6977 0002202 18.7766 134.4701 15.73152534 1300

Live tracking and technical data element details for STARLINK-4146 (NORAD 53294). STARLINK-4146 can be tracked NOW for your location showing map with azimuth and elevation plus other details from your city location.

Track the satellite on the map from your city or location and see movement details for azimuth, elevation, latitude, longitude, range, height, and movement on the map or in text.







IsCatalogInMostPopularTable: catalog: 53294, numindb: 4
Update: records affected: 1



GetName: 53294 STARLINK-4146

Hit Count: updated at: Thu, 29 Sep 2022 10:34:22 GMT